Regional Weather Roundup
Issued by NWS

Home | Current Version | Previous Version | Graphics & Text | Print | Product List | Glossary On
Versions: 1 2 3 4 5 6 7 8 9 10 11 12 13 14 15 16 17 18 19 20 21 22 23 24 25 26 27 28 29 30 31 32 33 34 35 36 37 38 39 40 41 42 43 44 45 46 47 48 49 50
000
ASUS43 KDTX 271501
RWRMI
MICHIGAN HOURLY REGIONAL WEATHER ROUNDUP
NATIONAL WEATHER SERVICE DETROIT/PONTIAC MI
1100 AM EDT SAT MAY 27 2017

NOTE: "FAIR" INDICATES FEW OR NO CLOUDS BELOW 12,000 FEET WITH NO
SIGNIFICANT WEATHER AND/OR OBSTRUCTION TO VISIBILITY.

MIZ047>049-052>055-059>063-066>070-074>076-081>083-271600-
SOUTHEAST LOWER MICHIGAN

CITY           SKY/WX    TMP DP  RH WIND       PRES   REMARKS
ADRIAN         PTSUNNY   66  60  81 SE6       29.91R
ALMA           SUNNY     69  56  62 CALM      29.93S
ANN ARBOR      SUNNY     70  57  63 E8        29.90R
BAD AXE        MOSUNNY   65  55  68 CALM      29.94R
CARO           MOSUNNY   69  56  63 NW5       29.92S
DETROIT CITY   SUNNY     68  57  68 VRB6      29.91R
DETROIT        MOSUNNY   70  55  59 E6        29.91R
FLINT          SUNNY     70  53  54 CALM      29.92R
GROSSE ILE     SUNNY     66  58  75 S6        29.90R
HILLSDALE      PTSUNNY   68  55  64 SE3       29.92R
HOWELL         MOSUNNY   69  51  52 CALM      29.93R

CITY           SKY/WX    TMP DP  RH WIND       PRES   REMARKS
JACKSON        PTSUNNY   67  57  70 S6        29.92R
LAMBERTVILLE   MOSUNNY   68  58  70 E8        29.90S
LANSING        SUNNY     72  53  51 NE5       29.93R
LAPEER         FAIR      68  54  60 CALM      29.93R
MASON          PTSUNNY   68  56  66 CALM      29.93R
MONROE         SUNNY     69  57  66 SE10      29.90R
MT. CLEMENS    MOSUNNY   66  60  79 SE6       29.90S
PONTIAC        MOSUNNY   68  54  60 SE7       29.90R
PORT HOPE        N/A     55  53  93 E9        29.93R
PORT HURON     SUNNY     66  54  63 CALM      29.93R
TRI CITIES     SUNNY     69  58  67 VRB5      29.93R
MIDLAND        FAIR      69  55  60 CALM      29.91F
TROY           SUNNY     69  53  55 NE7       29.92S
SAGINAW HB     SUNNY     70  52  52 NE5       29.92R
$$
MIZ043>046-050>051-056>058-064>065-071>073-077>080-271600-
SOUTHWEST LOWER MICHIGAN

CITY           SKY/WX    TMP DP  RH WIND       PRES   REMARKS
BATTLE CREEK   PTSUNNY   69  58  67 CALM      29.92S
BENTON HARBOR  MOSUNNY   66  58  75 CALM      29.92F
BIG RAPIDS     MOSUNNY   69  54  58 E6        29.91F
COLDWATER      CLOUDY    68  57  69 NE3       29.93R
FREMONT        FAIR      68  53  57 E3        29.91F
HOLLAND        SUNNY     70  56  61 CALM      29.92F
GRAND RAPIDS   PTSUNNY   70  56  61 CALM      29.92S
IONIA          FAIR      70  53  54 CALM      29.91F
KALAMAZOO      PTSUNNY   67  57  70 NW3       29.92R
LUDINGTON      SUNNY     68  57  66 SE3       29.90F
MARSHALL       PTSUNNY   69  58  67 NE3       29.93R
MOUNT PLEASANT SUNNY     68  57  68 CALM      29.91F
MUSKEGON       MOSUNNY   70  54  56 SW5       29.91F
SOUTH HAVEN    MOSUNNY   68  60  77 E5        29.92S
$$
MIZ016>042-271600-
NORTHERN LOWER MICHIGAN

CITY           SKY/WX    TMP DP  RH WIND       PRES   REMARKS
ALPENA         MOSUNNY   69  53  56 VRB6      29.92S
BEAVER ISLAND  SUNNY     68  50  53 NW6       29.89F
BELLAIRE       SUNNY     67  52  58 S3        29.90F
CADILLAC       MOSUNNY   69  54  59 E6        29.91S
CHARLEVOIX     SUNNY     63  53  71 E7        29.92F
FRANKFORT      SUNNY     68  53  58 CALM      29.89F
GAYLORD        SUNNY     68  53  58 S7        29.91F
GRAYLING       SUNNY     68  52  56 CALM      29.92F
HARBOR SPRINGS SUNNY     64  53  68 SW3       29.90F
HOUGHTON LAKE  MOSUNNY   67  55  65 SW7       29.92F
MANISTEE       SUNNY     68  55  63 VRB3      29.89F
OSCODA         MOSUNNY   67  51  57 E6        29.93S
PELLSTON       MOSUNNY   65  51  60 CALM      29.90F
ROGERS CITY    PTSUNNY   64  55  73 N5        29.92F
TRAVERSE CITY  MOSUNNY   69  52  54 NE5       29.88F
$$
MIZ007>008-015-271600-
EASTERN UPPER MICHIGAN

CITY           SKY/WX    TMP DP  RH WIND       PRES   REMARKS
KINROSS        CLOUDY    65  53  65 S7        29.90F
MACKINAC ISLAN SUNNY     62  51  66 S3        29.90F
NEWBERRY       SUNNY     66  52  59 S9        29.87F
S. S. MARIE    SUNNY     65  55  70 VRB3      29.88F
MUNISING         N/A     70  58  65 S6        29.82F
$$
MIZ004>006-011>014-085-271600-
CENTRAL UPPER MICHIGAN

CITY           SKY/WX    TMP DP  RH WIND       PRES   REMARKS
MANISTIQUE     SUNNY     54  50  86 SE8       29.88R
ESCANABA       SUNNY     61  54  77 S10       29.86S
SAWYER-GWINN   SUNNY     66  57  72 SW9       29.83F
$$
MIZ001>003-009>011-084-271600-
WESTERN UPPER MICHIGAN

CITY           SKY/WX    TMP DP  RH WIND       PRES   REMARKS
IRON MOUNTAIN  CLOUDY    69  55  60 SW9       29.83S
HOUGHTON       CLOUDY    65  56  72 W10       29.80S
COPPER HARBOR    N/A     47  45  93 VRB3      29.80R
IRONWOOD       SUNNY     66  52  60 NW8       29.85R
$$

ABBREVIATIONS USED IN REMARKS
   TC - TEMPERATURE IN CELSIUS
  WCI - WIND CHILL INDEX
   HX - HEAT INDEX
  VSB - VISIBILITY




USA.gov is the U.S. government's official web portal to all federal, state and local government web resources and services.